Home   Weather   Woodbridge   Past weeks
Flag for USA

Past Weather in Woodbridge, California, USA — Yesterday and Last 2 Weeks

Now
61 °F

Light rain. Mostly cloudy.


Feels Like: 61 °F
Forecast: 60 / 51 °F
Wind: 22 mph from West

Location: Stockton Metropolitan Airport

Current Time: Jan 20, 2019 at 3:25:56 pm

Latest Report: Jan 20, 2019 at 2:55 pm


Visibility: 5 mi

Pressure: 29.94 "Hg

Humidity: 78%

Dew Point: 54 °F

Location of WoodbridgeLocation

Past Weather in Woodbridge — Graph

°F

Woodbridge Temperature Yesterday

Maximum temperature yesterday: 68 °F (at 2:55 pm)
Minimum temperature yesterday: 53 °F (at 10:55 pm)
Average temperature yesterday: 58 °F

High & Low Weather Summary for the Past Weeks

 TemperatureHumidityPressure
High68 °F (Jan 19, 2:55 pm)97% (Jan 8, 7:55 am)30.39 "Hg (Jan 8, 7:55 am)
Low39 °F (Jan 13, 7:55 am)51% (Jan 19, 2:55 pm)29.71 "Hg (Jan 5, 1:58 pm)
Average52 °F86%30.02 "Hg
* Reported Jan 5 1:58 pm — Jan 20 1:55 pm, Woodbridge. Weather by CustomWeather, © 2019

Note: Actual official high and low records may vary slightly from our data, if they occured in-between our weather recording intervals... More about our weather records

Advertising

Woodbridge Weather History for the Previous 24 Hours

Scroll right to see more
 ConditionsComfort  
Time TempWeatherWind HumidityBarometerVisibility
1:55 pm
Sun, Jan 20
64 °FLight rain. Broken clouds.9 mph75%29.94 "Hg9 mi
12:55 pm62 °FScattered clouds.13 mph83%30.00 "Hg10 mi
11:55 am59 °FFog.9 mph90%30.05 "Hg6 mi
11:20 am57 °FLight rain. Fog.8 mph90%30.09 "Hg3 mi
9:55 am56 °FFog.9 mph87%30.09 "Hg6 mi
8:55 am54 °FFog.8 mph90%30.10 "Hg5 mi
8:08 am54 °FFog.10 mph86%30.10 "Hg6 mi
7:55 am53 °FFog.7 mph89%30.10 "Hg6 mi
6:55 am53 °FPassing clouds.6 mph89%30.10 "Hg9 mi
5:55 am54 °FOvercast.9 mph86%30.10 "Hg9 mi
4:55 am53 °FPassing clouds.6 mph86%30.12 "Hg8 mi
3:55 am53 °FPassing clouds.7 mph86%30.13 "Hg8 mi
2:55 am51 °FPassing clouds.6 mph89%30.15 "Hg8 mi
1:55 am53 °FPassing clouds.6 mph86%30.15 "Hg10 mi
12:55 am54 °FClear.7 mph83%30.16 "Hg10 mi
11:55 pm
Sat, Jan 19
53 °FClear.6 mph86%30.18 "Hg9 mi
10:55 pm53 °FClear.3 mph86%30.18 "Hg9 mi
9:55 pm54 °FClear.5 mph83%30.19 "Hg10 mi
8:55 pm56 °FClear.6 mph77%30.19 "Hg10 mi
7:55 pm55 °FClear.6 mph80%30.21 "Hg10 mi
6:55 pm60 °FPassing clouds.No wind72%30.22 "Hg10 mi
5:55 pm62 °FPassing clouds.No wind67%30.23 "Hg10 mi
4:55 pm63 °FSunny.6 mph70%30.24 "Hg10 mi
Weather by CustomWeather, © 2019

See weather overview

LIVE TOTAL LUNAR ECLIPSE – Watch the eclipse as it happens